TimeEDT,TemperatureF,Dew PointF,Humidity,Sea Level PressureIn,VisibilityMPH,Wind Direction,Wind SpeedMPH,Gust SpeedMPH,PrecipitationIn,Events,Conditions,WindDirDegrees,DateUTC
12:11 AM,80.6,68.0,65,29.97,10.0,WNW,6.9,-,0.00,,Overcast,300,2013-06-17 04:11:00
12:54 AM,79.0,68.0,69,29.98,10.0,West,8.1,-,0.00,,Overcast,260,2013-06-17 04:54:00
1:54 AM,79.0,68.0,69,29.98,10.0,WSW,9.2,-,N/A,,Overcast,240,2013-06-17 05:54:00
2:54 AM,78.1,66.9,68,29.97,10.0,WSW,6.9,-,0.00,Rain,Light Rain,250,2013-06-17 06:54:00
3:54 AM,75.0,68.0,79,29.98,10.0,SW,8.1,-,0.00,,Overcast,220,2013-06-17 07:54:00
4:54 AM,72.0,68.0,87,29.99,10.0,SSW,5.8,-,0.03,,Mostly Cloudy,210,2013-06-17 08:54:00
5:54 AM,71.1,66.9,87,30.00,10.0,SSW,9.2,-,0.00,Rain,Light Rain,200,2013-06-17 09:54:00
6:54 AM,72.0,66.9,84,30.02,5.0,SW,6.9,-,0.02,Rain,Light Rain,230,2013-06-17 10:54:00
7:20 AM,71.6,68.0,88,30.01,2.5,SSW,9.2,-,0.02,Rain,Light Rain,210,2013-06-17 11:20:00
7:54 AM,71.1,68.0,90,30.01,3.0,SSW,9.2,-,0.11,Rain,Light Rain,210,2013-06-17 11:54:00
8:54 AM,71.1,68.0,90,30.02,8.0,SW,6.9,-,0.00,,Overcast,220,2013-06-17 12:54:00
9:54 AM,73.0,70.0,90,30.00,9.0,SSW,5.8,-,0.01,,Overcast,200,2013-06-17 13:54:00
10:54 AM,75.0,70.0,84,30.00,9.0,SSW,8.1,-,N/A,,Overcast,210,2013-06-17 14:54:00
11:33 AM,75.2,71.6,89,29.99,8.0,SSW,6.9,-,N/A,,Overcast,210,2013-06-17 15:33:00
11:54 AM,75.0,71.1,87,30.00,8.0,SW,4.6,-,N/A,,Overcast,220,2013-06-17 15:54:00
12:54 PM,75.9,71.1,85,29.99,8.0,SSW,8.1,-,N/A,,Overcast,210,2013-06-17 16:54:00
1:54 PM,80.1,72.0,76,29.98,9.0,SSW,6.9,-,N/A,,Overcast,210,2013-06-17 17:54:00
2:54 PM,82.9,71.1,67,29.97,10.0,SSW,8.1,-,N/A,,Overcast,210,2013-06-17 18:54:00
3:54 PM,84.0,70.0,63,29.95,10.0,South,13.8,17.3,N/A,,Mostly Cloudy,190,2013-06-17 19:54:00
4:54 PM,84.9,70.0,61,29.94,10.0,South,11.5,-,N/A,,Mostly Cloudy,180,2013-06-17 20:54:00
5:54 PM,84.0,69.1,61,29.94,10.0,SW,11.5,-,N/A,,Mostly Cloudy,230,2013-06-17 21:54:00
6:54 PM,82.0,70.0,67,29.94,10.0,SSW,5.8,-,N/A,,Mostly Cloudy,210,2013-06-17 22:54:00
7:54 PM,79.0,71.1,77,29.92,10.0,South,5.8,-,N/A,,Mostly Cloudy,180,2013-06-17 23:54:00
8:54 PM,78.1,72.0,81,29.93,10.0,SSE,6.9,-,N/A,,Mostly Cloudy,150,2013-06-18 00:54:00
9:54 PM,77.0,72.0,84,29.94,10.0,South,8.1,-,N/A,,Mostly Cloudy,170,2013-06-18 01:54:00
10:54 PM,75.9,72.0,87,29.96,10.0,South,11.5,-,N/A,,Mostly Cloudy,180,2013-06-18 02:54:00
11:54 PM,75.0,70.0,84,29.97,10.0,SSW,4.6,-,N/A,,Overcast,200,2013-06-18 03:54:00